Temperature
16 16 16 16 16 16 16 16 16 16 16 16 15 15 15 15 15 15 15 15 15 15 15 15 15 15 15 15 15 15 15 16 16 16 16 16 16 16 16 16 16 16 16
16 16 16 16 16 15 16 16 15 15 15 15 15 15 15 15 15 15 15 15 15 15 15 15 15 15 15 15 15 15 15 15 15 15 15 16 16 16 16 16 16 16 16
16 16 16 16 15 15 15 15 15 15 15 15 15 15 15 15 15 15 15 15 15 15 15 15 15 15 15 15 15 15 15 15 15 15 15 15 15 15 15 15 15 15 15
16 16 16 15 15 15 15 15 15 15 15 15 15 15 15 15 15 15 15 15 15 15 15 15 15 15 15 15 15 15 15 15 15 15 15 15 15 15 15 15 15 15 15
16 16 16 15 15 15 15 15 15 15 15 15 15 15 15 15 15 15 15 15 15 14 14 14 14 14 14 15 15 14 14 14 14 14 15 14 14 14 14 14 14 14 14
16 16 15 15 15 15 15 15 15 15 15 15 15 15 15 15 15 15 15 15 14 14 14 14 14 14 14 14 14 14 14 14 14 14 14 14 14 14 14 14 14 14 14
15 15 15 15 15 15 15 15 15 15 15 15 15 15 15 15 15 15 15 15 14 14 14 14 14 14 14 14 14 14 14 14 14 14 14 14 14 14 14 14 14 14 14
15 15 15 15 15 15 15 15 15 15 15 15 15 15 15 15 14 14 15 14 14 14 14 14 14 14 14 14 14 14 14 14 14 14 14 14 14 14 14 14 14 14 14
15 15 15 15 15 15 15 15 15 15 15 15 15 15 15 15 14 14 14 14 14 14 14 14 14 13 14 14 14 14 14 14 14 14 14 14 14 14 14 14 13 13 13
15 15 15 15 15 15 15 15 15 15 15 15 15 15 15 15 15 14 14 14 14 14 14 14 14 13 13 14 14 14 13 13 14 13 13 13 13 13 13 13 13 13 13
15 15 15 15 15 15 15 15 15 15 15 15 15 15 15 15 15 15 14 14 14 14 14 14 13 13 13 13 13 13 13 13 13 13 13 13 13 13 13 12 12 12 12
15 15 15 15 15 15 15 15 15 15 15 15 15 15 15 15 15 15 14 14 14 14 14 14 13 13 13 13 13 13 13 13 13 13 13 13 13 13 12 12 12 12 12
15 15 15 15 15 15 15 15 15 15 15 15 15 15 15 15 15 15 15 14 14 14 13 13 13 13 13 13 13 13 13 13 13 13 13 13 13 12 12 12 12 12 12
15 15 15 15 15 15 15 15 15 15 15 15 15 15 15 15 15 15 14 14 14 14 13 13 13 13 13 13 13 13 13 13 13 13 12 12 12 12 12 12 12 11 11
15 15 15 15 15 15 15 15 15 15 15 15 15 15 15 15 14 14 14 14 14 14 13 13 13 13 13 13 13 13 13 13 12 12 12 12 12 12 12 11 11 11 11
15 15 15 15 15 15 15 15 15 15 15 15 15 15 15 14 14 14 14 14 14 14 13 13 13 13 13 12 12 12 12 12 12 12 12 12 12 12 11 11 11 11 11
15 15 15 15 15 15 15 15 15 15 15 15 14 14 14 14 14 14 14 14 14 14 13 13 13 12 12 12 12 12 12 12 12 12 12 12 11 11 11 11 11 11 10
15 15 15 15 15 15 15 15 15 15 14 14 14 14 14 14 14 14 14 14 14 13 13 13 12 12 12 12 12 12 12 12 12 11 11 11 11 11 11 11 10 10 10
15 15 15 15 15 15 15 15 15 15 14 14 14 14 14 14 14 14 14 14 13 13 13 13 12 12 12 12 12 12 11 11 11 11 11 11 11 10 10 10 10 10 10
15 15 15 15 15 15 15 15 14 14 14 14 14 14 14 14 14 14 14 13 13 13 13 13 12 12 12 12 11 11 11 11 11 11 11 10 10 10 10 10 10 9 9
15 15 15 15 15 15 15 15 14 14 14 14 14 14 14 14 14 14 13 13 13 13 12 12 12 12 12 12 11 11 11 11 11 11 10 10 10 10 10 10 9 9 9
15 15 15 15 15 15 15 15 14 14 14 14 14 14 14 14 13 13 13 13 13 13 12 12 12 12 12 12 11 11 11 11 11 10 10 10 10 10 9 9 9 9 9
15 15 15 15 15 15 15 14 14 14 14 14 14 13 13 13 13 13 13 13 13 13 12 12 12 12 12 12 11 11 11 11 10 10 10 10 10 9 9 9 9 9 9
15 15 15 15 15 15 14 14 14 14 14 13 13 13 13 13 13 13 13 13 13 12 12 12 12 12 12 11 11 11 11 10 10 10 10 9 9 9 9 9 9 8 8
15 15 15 15 15 14 14 14 14 14 13 13 13 13 13 13 13 12 12 12 12 12 12 12 12 11 11 11 11 11 10 10 10 10 9 9 9 9 8 8 8 8 8
14 14 14 14 14 14 14 14 14 14 13 13 13 13 13 13 12 12 12 12 12 12 12 12 11 11 11 11 11 10 10 10 9 9 9 9 8 8 8 8 8 7 7
Wind_Speed
2 2 2 3 4 4 4 4 6 6 6 7 8 8 7 9 10 10 10 13 12 12 12 12 13 13 12 12 12 12 12 12 11 11 11 10 10 11 11 11 11 10 10
3 3 3 3 4 5 5 5 5 5 4 5 5 6 7 7 9 10 10 11 12 12 12 13 13 13 12 12 11 11 11 12 11 11 11 11 11 11 11 11 11 10 11
4 4 3 3 3 5 6 5 5 5 4 4 5 5 6 5 7 9 9 9 10 12 12 12 12 12 11 11 11 11 11 11 11 11 11 11 12 11 11 11 11 11 11
7 5 4 3 4 5 4 3 3 4 4 4 4 4 4 4 5 7 8 9 9 10 11 11 11 11 11 11 11 11 11 11 11 11 11 11 11 12 12 12 12 11 11
7 6 3 2 5 4 3 3 4 3 4 3 3 4 4 4 4 6 6 8 10 10 9 9 10 11 11 12 11 11 12 11 11 11 11 11 11 11 12 12 12 12 12
6 6 2 4 5 3 3 4 4 3 2 2 4 5 4 4 4 4 5 7 8 9 8 7 8 10 11 12 12 12 11 11 11 11 12 12 12 12 12 12 12 13 13
5 5 3 4 4 3 3 3 3 3 2 2 3 3 3 4 4 4 4 5 7 8 8 8 9 9 9 11 12 12 11 11 12 12 12 12 12 12 12 12 12 13 13
5 4 3 3 3 3 3 3 3 2 1 1 1 1 2 2 3 3 3 5 5 6 7 9 10 9 10 10 11 12 12 11 12 12 12 12 12 12 12 13 13 13 13
5 5 3 3 3 3 3 2 2 3 1 1 2 2 2 1 1 2 4 4 4 4 5 7 9 10 10 10 10 11 12 12 12 12 12 12 12 12 12 13 13 13 13
4 4 3 2 3 3 3 2 3 2 1 1 2 2 2 2 2 1 2 3 4 5 4 6 8 9 10 11 10 11 11 11 11 11 11 11 11 12 12 12 13 13 13
3 3 2 2 3 2 3 4 4 3 2 2 1 1 2 2 2 2 2 1 2 3 3 4 6 7 9 10 10 10 10 10 10 10 10 10 10 11 11 11 12 12 12
2 3 2 3 3 3 4 3 3 3 3 3 2 3 2 2 2 2 2 2 2 1 3 3 4 5 7 9 8 8 8 8 8 8 9 9 9 10 10 10 10 11 11
2 2 2 2 3 3 3 3 2 2 3 3 3 3 3 3 2 2 2 2 2 1 2 2 3 4 6 7 7 7 6 7 7 7 7 7 8 9 9 9 9 10 10
2 3 3 2 3 3 3 3 2 2 3 3 4 3 3 3 2 2 2 2 2 1 2 2 2 4 5 6 6 6 5 5 5 5 6 7 7 7 7 8 8 9 9
3 4 4 3 3 3 3 3 2 3 3 3 3 3 2 1 2 2 2 2 2 1 1 1 1 2 5 6 6 5 5 4 4 4 5 5 6 6 6 7 7 8 8
3 3 4 3 3 3 3 3 3 2 3 2 2 2 2 1 2 1 1 1 1 2 1 0 1 2 3 5 5 5 4 4 4 4 4 4 4 5 5 5 6 7 8
3 3 4 3 3 3 3 3 2 1 2 1 1 2 2 2 2 1 2 2 2 2 2 0 1 1 2 3 4 4 4 5 5 4 4 3 3 4 4 5 5 6 7
4 3 4 4 3 3 3 3 2 1 1 1 1 2 2 2 2 1 1 1 1 1 2 1 0 1 1 2 3 2 3 3 4 4 4 3 3 3 3 4 4 5 6
3 3 4 4 3 3 3 3 3 2 1 1 1 1 1 2 2 1 1 1 1 1 2 2 1 0 0 1 1 1 2 2 2 3 4 3 2 2 2 3 3 4 5
3 3 3 3 4 3 2 2 2 2 1 1 1 1 2 2 2 1 1 1 1 1 1 1 1 1 1 1 1 1 0 1 1 2 3 3 3 2 1 1 1 2 3
2 3 2 3 3 3 2 2 1 1 1 1 1 1 2 4 5 3 2 1 1 1 1 0 1 1 1 0 1 1 1 1 1 1 1 2 3 3 2 2 0 1 1
2 3 2 3 3 2 3 4 1 0 0 1 1 1 2 3 3 3 3 2 2 1 1 1 1 1 2 1 1 1 1 0 2 1 1 2 3 2 3 3 3 2 1
2 2 3 3 3 3 4 3 2 1 1 0 1 1 0 2 3 3 2 1 0 1 2 2 1 2 2 2 1 1 1 1 3 3 0 2 2 2 3 4 4 3 2
3 2 3 3 4 3 4 3 1 0 1 0 1 2 1 1 1 1 1 1 0 1 2 2 2 2 1 1 1 2 2 2 2 2 0 2 2 2 2 4 6 6 4
3 3 3 4 4 4 5 4 2 0 0 1 1 1 2 2 3 4 1 0 0 1 0 1 2 2 2 2 1 0 1 1 2 3 1 1 2 1 2 3 5 6 5
3 3 3 3 4 5 6 5 3 1 1 0 0 1 2 2 2 2 1 0 1 1 1 1 1 2 1 2 2 2 2 1 2 2 2 0 2 1 1 1 2 3 4
Wind_Direction
75 80 88 89 84 77 70 61 61 58 60 59 66 69 73 85 90 90 78 72 70 71 73 76 74 72 69 69 70 68 66 65 66 65 64 62 61 58 55 53 52 50 46
87 79 64 64 73 71 71 77 83 75 69 65 63 66 67 83 98 102 98 84 76 73 70 73 72 71 68 66 70 70 69 67 65 64 64 64 62 59 56 54 53 51 47
82 88 75 68 78 77 71 72 78 81 79 74 68 70 66 63 90 102 105 102 88 75 72 71 70 69 69 69 69 69 69 69 66 65 64 64 62 61 58 56 54 51 48
67 73 65 66 73 78 80 76 70 72 67 62 63 63 71 61 72 95 104 102 101 93 82 77 73 70 67 66 67 69 70 70 68 67 66 65 63 61 59 55 52 50 49
75 86 71 73 80 76 64 74 71 68 73 71 88 75 66 57 50 71 83 92 97 103 100 89 81 74 69 64 64 67 69 69 68 67 67 67 63 60 57 54 51 49 47
68 85 90 79 77 69 57 64 76 73 82 78 84 83 77 77 56 51 62 70 77 88 99 104 100 86 76 65 62 63 65 66 66 66 68 68 64 60 57 54 52 50 48
68 76 76 81 81 82 74 77 83 80 74 91 85 77 61 71 71 65 61 64 57 65 83 88 100 103 90 71 63 61 62 66 67 69 69 67 63 60 58 56 53 52 50
59 74 83 92 90 92 76 65 78 74 44 63 102 114 98 43 42 71 76 72 64 56 57 71 84 90 91 84 70 64 62 68 70 70 68 65 61 58 57 57 55 53 51
53 52 66 92 106 102 95 78 70 76 41 8 59 86 104 116 94 40 70 79 75 61 55 59 67 76 86 87 78 68 67 69 69 67 65 62 61 60 58 55 53 51 49
75 59 46 65 94 95 105 107 92 78 71 16 11 37 75 115 127 93 31 59 77 68 59 59 64 72 81 85 82 76 72 69 68 66 64 62 60 58 56 54 53 52 50
91 90 58 57 71 91 91 77 79 57 63 61 38 36 40 42 58 115 112 74 65 65 73 68 70 73 84 86 86 80 76 73 69 64 61 59 57 56 55 53 52 51 49
93 86 76 60 66 69 78 76 81 68 55 52 49 56 62 58 43 77 110 121 104 82 87 81 81 81 88 89 86 83 83 79 73 66 59 56 54 54 52 50 48 47 44
116 111 84 67 79 79 83 75 66 85 81 64 64 60 54 53 47 67 96 108 108 129 98 84 90 96 96 98 95 90 93 89 80 68 62 59 56 53 51 47 44 40 37
137 130 109 89 92 98 91 82 64 76 86 77 75 73 70 55 54 64 84 98 86 65 83 104 77 94 97 108 105 102 99 100 88 76 69 64 58 54 49 44 39 37 34
135 130 131 122 109 108 102 90 67 60 66 68 70 75 81 71 65 61 68 95 112 101 61 106 95 122 118 111 117 112 107 105 101 93 82 69 61 56 50 43 38 34 30
124 135 136 134 137 123 113 100 81 66 77 81 87 82 73 68 58 52 51 37 70 126 115 103 153 160 133 124 128 120 115 115 109 108 99 80 65 59 52 44 37 32 26
148 150 146 140 140 140 130 116 133 134 107 115 112 100 85 75 68 58 58 41 38 84 118 142 105 134 122 112 120 133 132 126 116 117 121 99 76 66 56 48 40 33 26
163 168 154 148 153 154 139 138 139 112 113 121 107 107 122 107 86 59 74 59 57 86 122 139 59 74 114 154 150 144 128 120 126 130 137 133 111 82 67 53 43 35 30
164 167 152 152 147 140 138 144 146 151 167 179 167 146 134 125 137 123 122 109 85 88 106 129 192 221 219 167 108 94 115 129 151 156 155 156 153 124 87 61 43 36 32
158 149 143 149 148 145 128 130 141 160 187 177 122 85 68 80 89 85 98 89 98 87 91 116 178 221 212 209 121 146 277 253 207 169 163 175 182 174 149 95 44 38 30
137 134 130 122 119 116 109 104 123 159 131 119 113 108 97 89 80 78 79 63 72 87 89 133 214 222 224 165 216 218 233 259 260 191 175 197 179 171 167 186 192 354 347
109 111 118 117 114 112 103 91 56 316 174 156 139 133 137 127 117 106 90 81 105 152 209 231 242 225 245 228 219 229 216 257 285 269 194 242 173 181 172 173 186 195 243
131 136 143 135 134 118 114 93 48 12 334 273 128 121 203 162 157 165 171 172 15 287 222 212 238 238 234 250 236 284 273 262 249 240 193 260 221 207 187 187 195 203 226
158 170 159 151 139 134 132 115 64 291 285 238 182 181 170 122 82 89 161 137 222 290 257 216 208 238 231 225 180 213 231 262 281 296 182 246 248 222 197 188 207 206 216
177 180 165 158 154 156 154 141 118 232 282 296 44 57 90 95 64 38 70 166 240 283 358 173 186 196 218 255 231 252 272 270 285 288 283 236 266 245 228 214 218 221 227
178 176 173 176 169 158 165 165 166 191 228 295 61 73 93 107 82 44 32 214 231 253 298 335 327 296 271 276 264 194 212 236 267 279 288 303 299 336 301 241 202 236 244
Height
1538 1538 1538 1539 1539 1539 1539 1539 1539 1540 1540 1541 1541 1541 1542 1542 1542 1542 1542 1542 1542 1542 1542 1542 1541 1541 1541 1542 1542 1542 1542 1541 1541 1541 1541 1541 1541 1540 1540 1540 1539 1538 1538
1539 1539 1540 1540 1540 1540 1541 1541 1541 1542 1542 1542 1542 1543 1543 1544 1543 1543 1543 1543 1543 1543 1543 1542 1542 1542 1542 1542 1542 1543 1542 1542 1542 1542 1541 1541 1541 1541 1540 1540 1539 1539 1538
1540 1540 1541 1541 1541 1542 1542 1542 1543 1543 1543 1544 1544 1544 1545 1545 1546 1545 1545 1545 1544 1544 1544 1543 1543 1543 1543 1543 1543 1543 1543 1543 1543 1542 1542 1542 1542 1541 1541 1540 1540 1539 1538
1541 1541 1542 1542 1543 1543 1543 1544 1544 1545 1545 1546 1546 1546 1546 1547 1547 1547 1547 1546 1546 1545 1545 1544 1544 1544 1544 1544 1544 1544 1544 1543 1543 1543 1543 1543 1542 1542 1541 1541 1540 1540 1539
1542 1542 1543 1543 1544 1544 1544 1545 1545 1546 1546 1547 1548 1548 1548 1549 1549 1549 1549 1548 1547 1546 1546 1545 1544 1544 1545 1545 1545 1545 1545 1544 1544 1544 1543 1543 1543 1543 1542 1542 1541 1540 1539
1543 1543 1544 1544 1544 1545 1546 1546 1546 1547 1548 1548 1549 1549 1550 1550 1550 1550 1550 1550 1549 1548 1546 1545 1544 1544 1545 1546 1546 1546 1545 1545 1545 1544 1544 1544 1544 1543 1543 1542 1541 1541 1540
1544 1545 1545 1545 1545 1546 1546 1547 1547 1548 1549 1549 1550 1550 1551 1551 1551 1551 1551 1551 1550 1549 1548 1546 1544 1544 1546 1547 1547 1546 1546 1546 1546 1545 1545 1545 1544 1544 1543 1543 1542 1541 1540
1545 1546 1546 1546 1546 1547 1547 1548 1549 1549 1549 1550 1551 1551 1552 1554 1553 1553 1552 1552 1552 1551 1550 1548 1547 1547 1547 1548 1548 1547 1547 1547 1546 1546 1546 1545 1545 1544 1544 1543 1542 1541 1540
1546 1546 1547 1547 1548 1548 1548 1549 1549 1550 1550 1551 1551 1552 1552 1553 1553 1554 1553 1554 1553 1552 1551 1550 1549 1549 1549 1549 1549 1549 1548 1548 1548 1547 1547 1546 1546 1545 1544 1544 1543 1542 1541
1546 1547 1548 1548 1549 1549 1549 1550 1550 1550 1551 1551 1552 1552 1553 1553 1553 1554 1556 1555 1554 1554 1553 1552 1551 1551 1551 1551 1550 1550 1550 1549 1548 1548 1548 1547 1547 1546 1545 1544 1543 1542 1541
1547 1547 1548 1549 1550 1550 1550 1550 1550 1551 1551 1552 1552 1552 1553 1553 1554 1554 1555 1556 1556 1555 1554 1554 1553 1552 1552 1552 1551 1551 1550 1550 1549 1549 1549 1548 1547 1546 1545 1544 1543 1542 1541
1547 1548 1548 1549 1550 1550 1550 1551 1551 1551 1552 1552 1552 1553 1553 1553 1554 1554 1555 1555 1556 1556 1556 1555 1554 1554 1553 1553 1552 1552 1551 1551 1550 1550 1549 1548 1547 1546 1546 1545 1543 1542 1541
1547 1548 1548 1549 1550 1550 1551 1551 1552 1552 1552 1553 1553 1553 1554 1554 1554 1555 1555 1555 1556 1556 1556 1556 1556 1555 1554 1554 1553 1553 1552 1551 1551 1550 1549 1549 1547 1546 1546 1545 1543 1542 1541
1548 1548 1548 1549 1550 1550 1551 1552 1552 1553 1553 1553 1553 1554 1554 1554 1555 1555 1555 1556 1556 1556 1556 1557 1556 1556 1555 1554 1554 1553 1552 1552 1551 1550 1550 1548 1547 1546 1545 1544 1543 1542 1540
1547 1548 1548 1549 1550 1550 1551 1552 1552 1553 1553 1553 1554 1554 1554 1555 1555 1555 1555 1556 1556 1556 1557 1557 1556 1556 1555 1554 1554 1553 1552 1552 1551 1550 1549 1548 1547 1546 1545 1544 1542 1541 1540
1547 1547 1548 1549 1549 1550 1551 1552 1552 1553 1553 1554 1554 1554 1554 1555 1555 1555 1556 1556 1556 1556 1556 1556 1556 1556 1555 1555 1554 1553 1552 1552 1551 1550 1549 1548 1547 1545 1544 1543 1541 1540 1539
1546 1547 1548 1549 1550 1550 1551 1552 1552 1553 1554 1554 1554 1555 1555 1555 1555 1555 1555 1555 1555 1555 1555 1556 1556 1556 1555 1555 1554 1553 1552 1551 1550 1550 1549 1548 1546 1545 1543 1542 1541 1539 1538
1545 1546 1547 1548 1549 1550 1551 1551 1552 1553 1553 1554 1554 1555 1555 1555 1555 1555 1555 1555 1555 1555 1555 1555 1555 1555 1555 1554 1553 1553 1552 1551 1550 1549 1548 1547 1546 1544 1543 1541 1540 1538 1537
1545 1546 1547 1547 1548 1549 1550 1551 1552 1552 1553 1553 1554 1554 1554 1554 1554 1554 1554 1554 1554 1554 1554 1554 1554 1554 1554 1553 1553 1552 1551 1550 1549 1548 1547 1546 1545 1543 1542 1540 1539 1538 1536
1544 1545 1546 1547 1547 1548 1549 1550 1551 1551 1552 1552 1553 1553 1553 1553 1553 1553 1553 1553 1553 1553 1553 1553 1553 1553 1553 1552 1551 1551 1550 1549 1548 1547 1546 1545 1543 1542 1541 1539 1538 1536 1535
1542 1543 1544 1545 1546 1547 1548 1549 1549 1550 1551 1551 1552 1552 1552 1552 1552 1552 1552 1552 1552 1552 1552 1552 1552 1551 1551 1550 1550 1549 1548 1547 1546 1545 1544 1543 1542 1540 1539 1538 1537 1535 1533
1540 1541 1542 1543 1544 1545 1546 1547 1548 1549 1549 1550 1550 1550 1550 1551 1551 1550 1550 1550 1551 1550 1550 1550 1550 1549 1549 1548 1548 1547 1546 1545 1544 1544 1542 1541 1540 1538 1537 1536 1535 1533 1531
1538 1539 1540 1542 1542 1543 1545 1545 1546 1547 1547 1548 1548 1549 1549 1549 1549 1549 1548 1549 1549 1549 1549 1549 1547 1547 1547 1546 1546 1545 1544 1543 1542 1541 1540 1538 1538 1536 1535 1534 1533 1531 1529
1536 1537 1539 1540 1541 1542 1543 1543 1544 1545 1545 1546 1546 1547 1547 1547 1547 1547 1546 1546 1546 1546 1546 1546 1545 1545 1544 1544 1543 1542 1541 1540 1539 1538 1538 1536 1535 1533 1532 1531 1530 1529 1527
1534 1536 1537 1538 1539 1540 1541 1542 1542 1543 1543 1544 1544 1545 1545 1545 1545 1544 1544 1544 1543 1543 1543 1543 1542 1542 1541 1541 1540 1539 1538 1537 1535 1534 1534 1533 1532 1530 1529 1528 1527 1526 1524
1532 1534 1535 1536 1537 1538 1539 1539 1540 1541 1541 1542 1542 1542 1543 1543 1542 1542 1541 1541 1540 1540 1540 1540 1539 1539 1538 1538 1537 1536 1535 1534 1532 1531 1531 1530 1528 1527 1525 1524 1523 1522 1521